Location: Larrial
(48.2758°N, 4.5331°W)
Time: 13:56:34
(UTC+00:00)

Cosmos 1934 Rocket - Pass Details

Date: 09 April 2020
Orbit: 937 x 1000 km, 83.0° (Epoch: 03 June)

Event Time Altitude Azimuth Distance (km) Brightness Sun altitude
Rises 22:02:15 0° 352° (N) 3,698 7.9 -26.1°
Reaches altitude 10° 22:04:49 10° 355° (N) 2,737 7.1 -26.4°
Maximum altitude 22:11:04 70° 79° (ENE) 1,028 3.9 -27.0°
Enters shadow 22:11:29 67° 106° (ESE) 1,041 3.9 -27.1°
